Helicity
7 -6 23 28 31 34 30 37 34 33 28 26 24 25 24 24 25 24 24 21 18 17 15 26 27 23 18 13 23 57 38 47 42 46 51 65 71 36 27 16 18 30 40
1 21 28 28 33 32 35 33 34 34 31 32 33 29 27 25 22 23 23 22 23 20 15 10 22 22 11 10 19 48 70 61 60 48 40 40 67 44 17 21 27 36 31
39 35 55 56 51 54 47 49 47 43 39 40 38 33 32 29 26 24 22 24 24 19 13 15 16 11 11 7 14 42 70 74 78 77 69 45 35 32 44 51 47 43 39
30 35 57 69 65 58 49 43 34 27 26 25 25 22 21 20 23 26 26 22 28 24 20 16 19 14 4 2 9 32 68 84 88 113 75 25 32 28 43 52 54 51 37
124 79 66 73 80 80 75 70 62 57 52 43 38 36 32 27 28 25 26 28 29 27 23 20 17 19 9 2 1 16 51 98 124 99 83 33 12 14 24 33 46 49 45
247 258 302 204 104 95 91 85 77 70 62 58 50 44 38 34 33 33 24 26 27 23 21 24 21 11 12 6 2 11 40 70 102 103 32 24 1 2 15 17 28 23 27
207 200 231 275 311 220 113 97 91 85 77 68 61 51 47 40 39 39 40 35 29 27 21 13 14 18 6 0 -1 2 22 50 64 85 46 0 4 2 15 7 6 8 7
215 214 225 251 234 229 251 171 106 81 73 71 71 67 61 58 53 44 42 41 36 30 22 16 8 6 12 3 -11 -6 2 30 52 68 39 27 11 28 31 10 5 -14 3
219 242 243 242 242 250 241 207 164 115 93 81 80 93 99 90 76 65 55 45 35 33 28 21 13 6 7 7 5 -6 -12 2 28 62 47 46 28 32 43 24 18 4 -3
240 245 245 233 233 198 202 249 266 180 156 119 108 143 160 117 61 50 47 31 37 36 30 24 20 12 8 11 10 7 -4 -10 -1 33 42 36 35 46 42 36 14 16 9
208 211 207 218 221 223 199 246 290 258 239 186 170 118 131 135 97 14 31 20 22 28 28 23 21 20 15 10 10 9 10 13 8 24 33 48 33 34 34 53 25 17 17
212 210 211 217 217 207 189 220 233 257 266 264 196 159 125 161 205 170 127 63 46 29 26 31 23 19 36 41 33 19 43 36 16 22 34 17 41 46 28 34 17 12 18
167 184 215 224 228 258 251 209 219 223 232 205 220 188 155 145 170 159 149 157 114 83 79 68 48 51 35 51 45 40 48 50 33 52 42 31 43 55 65 44 36 15 28
214 218 238 264 260 280 239 244 266 280 257 219 194 200 147 147 177 184 172 188 170 128 90 79 82 52 48 38 46 51 47 49 38 49 43 37 49 39 45 78 50 55 53
248 254 267 283 295 274 257 265 308 326 280 245 195 195 157 157 154 161 182 190 186 177 122 113 101 67 73 62 63 51 57 44 44 53 77 58 39 45 44 46 51 29 59
249 284 270 296 283 266 273 294 309 296 238 213 184 178 177 178 195 184 182 191 189 186 162 120 103 110 67 40 59 73 78 67 68 66 71 71 51 47 41 45 43 30 41
249 262 307 311 329 325 309 288 261 246 217 194 200 201 185 196 219 219 209 190 175 172 162 128 120 119 100 79 41 50 61 68 58 91 94 71 73 36 38 26 39 53 42
270 303 277 284 298 275 258 225 210 206 190 188 171 203 210 207 210 210 193 207 217 172 132 122 122 121 112 98 99 101 96 91 92 68 61 93 85 76 58 31 38 42 49
286 286 283 267 253 232 211 189 179 194 180 178 137 169 192 181 201 184 176 186 190 171 166 138 126 103 102 113 103 86 93 95 85 97 100 68 61 83 89 70 62 60 54
250 237 228 220 219 198 169 160 135 157 143 152 113 141 147 123 158 152 151 150 146 161 156 166 166 146 104 90 100 94 83 67 74 72 73 87 95 86 88 88 91 93 69
232 220 208 188 178 133 138 152 149 180 123 124 85 99 100 101 110 115 102 95 92 125 148 148 124 142 141 140 78 68 60 81 70 67 77 95 97 89 102 101 112 117 104
213 197 176 144 114 72 59 38 5 51 28 20 15 21 28 53 57 57 63 62 62 63 103 120 123 101 108 140 115 90 5 47 85 71 87 94 101 131 148 115 101 115 125
217 186 141 96 57 22 17 -5 -2 -22 -22 -53 -18 -18 -11 -1 9 4 18 27 45 39 48 59 87 92 97 141 168 149 85 38 51 113 137 142 133 145 146 138 130 114 119
168 132 104 66 30 18 -14 -12 -25 -37 -37 -32 -28 -21 -16 -14 -7 3 16 20 20 22 34 49 76 99 89 95 105 175 226 184 99 1 90 101 143 142 116 122 129 113 117
155 129 94 61 36 9 -3 -30 -42 -54 -76 -83 -74 -80 -62 -28 10 42 70 92 88 89 81 74 88 103 114 119 129 102 133 168 177 147 41 49 101 72 78 114 109 111 110
154 117 78 64 40 -10 -49 -76 -98 -112 -116 -96 -59 -47 -44 -33 -20 3 8 17 50 99 117 123 135 151 142 134 142 169 140 129 208 251 200 137 56 85 66 37 81 80 88
Wind_Speed
27 31 31 31 31 32 31 32 33 34 33 34 35 36 36 37 37 38 39 39 40 40 40 41 43 42 40 34 25 17 15 15 16 16 15 12 13 16 17 24 23 18 17
36 33 32 32 31 31 31 32 33 34 34 35 35 35 36 38 38 38 38 39 39 39 40 39 41 41 38 31 22 18 17 15 15 17 17 14 13 13 14 18 17 15 15
37 37 34 34 34 34 34 35 35 35 34 34 34 35 36 36 37 37 38 39 39 39 39 39 40 40 38 32 24 21 20 19 18 18 20 18 15 14 16 14 14 12 13
42 40 38 37 36 35 35 35 35 35 36 36 36 36 36 36 36 37 37 36 38 39 39 38 38 38 37 34 28 25 24 24 23 27 29 21 17 15 15 15 14 14 14
44 43 41 39 38 37 37 37 36 36 36 37 37 37 37 37 37 36 36 35 35 37 38 38 37 36 36 35 31 28 26 26 29 27 23 19 17 15 15 16 15 15 16
38 38 38 39 41 40 39 38 38 38 38 38 38 38 39 38 38 38 37 36 34 35 36 36 36 35 35 34 33 31 29 29 31 31 26 25 23 14 14 16 15 16 16
37 38 38 40 40 41 42 41 40 40 40 40 40 41 40 40 39 38 38 37 35 35 37 37 35 33 34 34 33 33 33 33 33 34 29 28 25 19 15 15 16 16 15
38 40 40 40 41 41 41 44 42 42 42 42 43 43 43 43 42 40 39 37 37 37 36 36 37 36 34 35 35 35 36 36 35 36 26 27 25 19 16 19 20 23 15
41 41 42 43 43 44 44 46 44 44 44 44 44 45 46 45 44 43 42 42 42 40 39 38 37 36 36 38 37 37 38 39 38 37 33 27 25 23 21 21 25 22 18
44 45 45 46 46 46 46 48 49 47 50 48 49 48 51 50 47 45 43 42 44 46 45 42 39 37 38 38 39 39 39 41 40 39 33 25 25 26 26 27 26 24 23
45 47 47 48 49 48 47 48 49 49 49 48 48 48 49 50 49 41 42 43 46 47 47 47 44 41 39 41 42 40 40 42 42 41 40 29 27 28 31 34 29 27 24
47 50 51 51 51 50 48 49 49 50 50 51 51 51 51 52 51 50 51 51 50 50 49 49 46 43 43 44 44 44 40 41 42 43 46 28 28 33 29 38 36 34 28
47 50 52 53 52 52 51 50 50 50 51 51 53 54 53 52 53 53 52 53 53 52 50 53 49 43 43 45 47 45 43 44 40 40 39 28 31 38 42 42 45 37 30
48 51 53 54 53 54 52 52 52 53 53 53 54 56 55 55 56 56 55 56 56 55 53 51 49 47 47 44 47 48 48 48 48 43 36 33 34 37 40 45 45 24 29
49 52 54 55 55 55 54 54 54 55 54 55 57 59 59 59 59 60 58 58 58 59 57 57 56 51 49 52 53 51 53 52 50 49 42 36 37 38 40 38 38 30 28
49 52 53 55 56 55 55 55 56 56 56 57 59 61 61 60 62 62 61 60 61 61 61 60 58 60 60 56 55 55 55 54 54 49 48 46 43 43 41 39 38 36 32
48 51 53 55 57 57 57 56 56 58 57 58 60 61 61 62 64 63 63 63 65 65 64 63 62 62 61 61 58 58 60 60 56 55 53 52 50 52 46 43 42 37 34
48 52 53 55 57 58 59 58 58 59 59 60 61 64 64 65 66 66 65 67 70 67 66 65 65 66 65 63 65 64 63 62 64 63 61 57 55 53 55 54 46 46 44
49 52 54 57 59 61 61 61 61 63 63 64 63 68 69 69 70 69 68 70 71 70 69 69 70 68 70 70 70 68 65 65 64 65 67 68 66 62 56 56 55 54 56
50 53 55 58 61 63 65 65 65 67 68 69 67 72 73 73 75 74 72 73 73 74 74 75 76 74 73 73 76 76 73 69 67 67 68 70 70 72 68 64 62 59 54
53 56 60 63 66 68 71 74 74 78 75 76 74 76 77 77 78 80 78 77 77 77 78 78 78 81 79 76 79 80 79 81 79 76 73 71 73 72 72 72 70 66 64
55 59 63 65 69 70 72 73 71 78 74 77 78 79 79 82 83 82 82 81 81 82 81 81 80 83 81 73 77 83 84 80 75 75 71 71 71 69 72 74 73 72 68
57 62 65 68 71 72 75 76 78 78 80 80 86 86 86 86 86 85 85 86 86 84 85 83 83 81 88 87 79 76 79 80 77 67 67 72 71 69 69 69 71 74 73
57 61 66 70 72 76 80 84 87 89 94 92 94 94 94 91 91 89 90 88 89 87 88 87 85 88 86 92 87 76 85 86 85 95 79 75 74 70 68 69 70 72 73
59 65 69 72 79 82 86 87 91 94 94 96 97 100 100 96 94 94 93 94 93 92 91 92 90 89 89 92 91 94 94 94 95 97 106 92 88 86 80 73 71 71 70
61 66 71 75 81 86 88 91 94 98 101 103 104 104 101 99 97 96 96 95 94 95 95 94 94 95 94 94 95 95 98 97 98 97 98 98 101 99 93 92 89 82 77
Wind_Direction
354 17 18 14 15 14 12 12 13 13 11 14 15 15 13 12 9 9 11 12 13 13 10 10 19 15 4 351 334 310 325 343 357 357 353 336 349 10 18 43 48 41 39
34 19 17 16 14 12 10 9 12 13 13 13 11 9 8 8 6 6 9 15 15 12 12 9 11 10 0 345 319 294 306 316 323 349 350 335 312 302 358 27 31 28 30
27 20 13 11 13 11 9 9 9 9 6 2 1 1 2 360 1 4 9 14 16 13 9 7 7 11 9 348 325 305 299 294 287 293 284 281 321 347 10 356 7 3 2
27 20 16 13 11 8 6 5 5 7 12 14 11 6 3 1 3 2 357 8 11 12 9 2 5 10 8 360 339 319 296 285 295 280 261 281 296 346 357 341 330 347 344
23 18 12 11 9 5 1 358 356 354 351 352 356 357 357 355 357 356 357 359 1 5 7 5 355 1 6 0 343 325 314 290 286 289 287 314 314 330 347 341 333 339 329
3 358 354 355 5 3 359 356 353 352 349 345 344 346 347 348 350 347 346 353 359 355 357 2 2 348 352 354 347 333 317 299 292 290 299 300 295 330 341 347 336 332 346
351 350 346 347 345 348 356 351 348 347 346 342 339 338 339 339 341 345 345 347 350 352 348 345 350 354 342 339 342 332 318 304 299 292 291 295 300 301 322 331 333 331 347
345 340 340 335 334 333 329 342 343 342 342 341 338 335 333 332 333 336 340 340 340 339 342 343 338 334 336 334 325 325 315 304 301 295 299 300 307 304 312 309 312 300 330
342 339 332 329 326 328 331 332 327 338 338 336 335 334 330 327 327 328 328 327 328 330 331 332 332 331 328 322 322 318 310 301 296 293 295 301 303 303 302 304 300 306 311
340 337 332 330 327 325 326 331 333 323 319 322 320 323 321 318 321 325 328 328 325 320 319 322 325 323 320 320 316 315 311 300 293 292 295 303 301 298 292 292 298 300 301
337 337 333 332 332 329 331 327 330 335 340 341 340 334 334 335 330 338 333 329 324 320 315 314 315 316 316 312 310 311 308 301 293 292 294 292 293 294 287 284 293 293 296
334 336 336 334 333 334 335 333 333 333 333 335 335 333 331 330 332 334 330 321 320 318 315 313 312 313 310 307 306 303 307 304 295 292 292 292 289 287 290 281 282 282 284
340 341 339 337 336 336 335 337 336 336 335 335 335 333 331 329 325 324 325 328 327 324 321 312 308 314 314 308 302 300 299 298 297 296 299 298 291 286 282 282 279 278 275
339 339 338 337 338 338 338 338 337 336 335 335 334 332 329 326 323 323 323 321 323 324 322 322 318 313 310 308 304 299 295 291 288 292 297 296 294 290 286 280 283 274 271
342 341 340 340 339 339 340 339 336 335 336 335 334 333 331 326 321 318 318 318 319 318 320 317 313 314 314 308 301 299 295 290 289 285 290 289 291 291 287 283 284 280 272
346 343 343 343 342 342 340 338 337 336 334 333 331 330 330 328 324 319 316 316 316 315 313 313 312 308 305 306 303 299 294 292 287 288 284 284 284 284 285 281 279 275 275
346 345 346 346 345 344 342 340 338 337 336 335 333 331 330 328 325 322 319 316 314 312 312 311 309 308 306 303 302 297 293 289 289 285 284 283 282 279 279 277 275 275 274
345 344 344 345 345 344 343 342 340 337 336 334 333 332 329 327 325 321 318 316 313 312 310 309 308 304 303 303 299 296 293 291 285 283 281 281 281 280 277 272 274 272 270
346 345 343 343 341 340 339 338 337 335 333 331 330 329 326 325 323 320 318 316 314 311 310 307 303 303 300 298 297 296 294 291 287 284 280 278 276 276 277 276 274 273 269
345 344 342 340 339 337 334 332 331 330 329 329 327 325 323 322 321 319 316 315 314 309 307 305 302 300 298 296 294 291 290 289 288 285 282 280 277 273 273 273 273 272 271
339 338 336 335 334 334 332 329 326 323 323 323 323 322 321 321 319 315 313 311 311 308 305 303 301 298 296 296 293 290 287 285 283 283 282 280 277 275 272 271 271 270 270
334 334 333 333 332 332 331 329 328 324 323 321 321 320 319 317 316 313 311 309 308 306 304 302 301 297 294 296 292 289 285 285 284 282 281 280 278 276 273 272 270 268 268
334 333 332 332 331 332 331 329 327 325 322 320 319 317 317 316 314 312 310 307 306 304 301 300 299 296 292 290 290 287 285 281 284 283 281 282 281 275 274 274 271 269 267
333 333 333 332 332 331 330 327 324 321 317 317 316 315 313 313 311 310 308 306 304 302 299 297 296 294 293 288 288 284 283 282 280 277 278 278 280 278 276 275 272 273 269
335 334 333 332 330 328 327 326 323 320 318 316 314 312 311 310 309 308 306 304 302 300 298 296 294 292 290 288 285 282 282 280 278 275 273 275 274 272 272 275 274 274 270
338 336 334 332 330 328 326 324 322 319 317 315 314 312 311 310 309 307 305 303 301 299 297 295 293 290 288 286 284 282 279 275 274 274 274 274 272 270 270 269 269 270 271